Cosmos 1833 - Orbit

View from above orbital plane
View from above orbital plane
View from above satellite
View from above satellite

Ground track
Ground track

The orbit data is extracted from the following two-line orbital elements,

1 17589U 87027A   13142.84176309  .00000330  00000-0  20355-3 0  4497
2 17589 070.9158 068.1718 0004713 277.8120 137.3046 14.12789951350374
Epoch (UTC): 22 May 2013 20:12:08
Eccentricity: 0.0004713
inclination: 70.9158°
perigee height: 846 km
apogee height: 853 km
right ascension of ascending node: 68.1718°
argument of perigee: 277.8120°
revolutions per day: 14.12789951
mean anomaly at epoch: 137.3046°
orbit number at epoch: 35037

The dashed part of the orbit path shows where the satellite is in the earth's shadow,  

Developed and maintained by Chris Peat, Heavens-Above GmbH. Please read the updated FAQ before sending e-mail. Imprint. DLR